Powrót do katalogu

STARLINK-34911

AktywnyŁącznośćVLEO
NORAD 65325·PAYLOAD·🇺🇸 United States

Wystrzelony Aug 27, 2025 z Cape Canaveral Space Force Station

Loading…

Następne Przeloty (najbliższe 24 godziny)

TLE

ŚwieżeSource: CelesTrak SupGP

Epoka: Sep 15, 2026, 03:50 UTC

1 65325C 25189C   26258.16020833  .00012313  00000+0  36421-3 0  2588
2 65325  53.1601  44.3193 0001029  88.9094  96.0865 15.34348910    16

Śledź STARLINK-34911 w czasie rzeczywistym z AllMySat

Download on the App Store